Year,Month,Day,Hour,Minute,Value (Times are PST for temperature in C)
2014,07,11,00,00,15.90
2014,07,11,00,01,15.80
2014,07,11,00,02,15.80
2014,07,11,00,03,15.80
2014,07,11,00,04,15.80
2014,07,11,00,05,15.80
2014,07,11,00,06,15.80
2014,07,11,00,07,15.80
2014,07,11,00,08,15.80
2014,07,11,00,09,15.80
2014,07,11,00,10,15.80
2014,07,11,00,11,15.80
2014,07,11,00,12,15.70
2014,07,11,00,13,15.70
2014,07,11,00,14,15.70
2014,07,11,00,15,15.70
2014,07,11,00,16,15.70
2014,07,11,00,17,15.70
2014,07,11,00,18,15.70
2014,07,11,00,19,15.70
2014,07,11,00,20,15.60
2014,07,11,00,21,15.60
2014,07,11,00,22,15.60
2014,07,11,00,23,15.60
2014,07,11,00,24,15.60
2014,07,11,00,25,15.50
2014,07,11,00,26,15.50
2014,07,11,00,27,15.50
2014,07,11,00,28,15.50
2014,07,11,00,29,15.40
2014,07,11,00,30,15.40
2014,07,11,00,31,15.40
2014,07,11,00,32,15.40
2014,07,11,00,33,15.40
2014,07,11,00,34,15.40
2014,07,11,00,35,15.30
2014,07,11,00,36,15.30
2014,07,11,00,37,15.30
2014,07,11,00,38,15.30
2014,07,11,00,39,15.30
2014,07,11,00,40,15.20
2014,07,11,00,41,15.20
2014,07,11,00,42,15.20
2014,07,11,00,43,15.20
2014,07,11,00,44,15.10
2014,07,11,00,45,15.10
2014,07,11,00,46,15.00
2014,07,11,00,47,15.00
2014,07,11,00,48,15.00
2014,07,11,00,49,15.00
2014,07,11,00,50,15.00
2014,07,11,00,51,15.00
2014,07,11,00,52,15.00
2014,07,11,00,53,15.00
2014,07,11,00,54,15.00
2014,07,11,00,55,15.00
2014,07,11,00,56,15.00
2014,07,11,00,57,15.00
2014,07,11,00,58,15.00
2014,07,11,00,59,15.00
2014,07,11,01,00,15.00
2014,07,11,01,01,15.00
2014,07,11,01,02,15.00
2014,07,11,01,03,15.00
2014,07,11,01,04,15.00
2014,07,11,01,05,14.90
2014,07,11,01,06,14.90
2014,07,11,01,07,14.90
2014,07,11,01,08,14.80
2014,07,11,01,09,14.80
2014,07,11,01,10,14.80
2014,07,11,01,11,14.80
2014,07,11,01,12,14.80
2014,07,11,01,13,14.80
2014,07,11,01,14,14.80
2014,07,11,01,15,14.80
2014,07,11,01,16,14.80
2014,07,11,01,17,14.70
2014,07,11,01,18,14.70
2014,07,11,01,19,14.70
2014,07,11,01,20,14.70
2014,07,11,01,21,14.70
2014,07,11,01,22,14.70
2014,07,11,01,23,14.70
2014,07,11,01,24,14.70
2014,07,11,01,25,14.70
2014,07,11,01,26,14.60
2014,07,11,01,27,14.60
2014,07,11,01,28,14.60
2014,07,11,01,29,14.60
2014,07,11,01,30,14.60
2014,07,11,01,31,14.60
2014,07,11,01,32,14.50
2014,07,11,01,33,14.50
2014,07,11,01,34,14.50
2014,07,11,01,35,14.50
2014,07,11,01,36,14.40
2014,07,11,01,37,14.40
2014,07,11,01,38,14.40
2014,07,11,01,39,14.40
2014,07,11,01,40,14.40
2014,07,11,01,41,14.40
2014,07,11,01,42,14.30
2014,07,11,01,43,14.30
2014,07,11,01,44,14.30
2014,07,11,01,45,14.30
2014,07,11,01,46,14.30
2014,07,11,01,47,14.30
2014,07,11,01,48,14.20
2014,07,11,01,49,14.20
2014,07,11,01,50,14.20
2014,07,11,01,51,14.20
2014,07,11,01,52,14.20
2014,07,11,01,53,14.20
2014,07,11,01,54,14.20
2014,07,11,01,55,14.20
2014,07,11,01,56,14.10
2014,07,11,01,57,14.10
2014,07,11,01,58,14.10
2014,07,11,01,59,14.10
2014,07,11,02,00,14.10
2014,07,11,02,01,14.10
2014,07,11,02,02,14.10
2014,07,11,02,03,14.10
2014,07,11,02,04,14.00
2014,07,11,02,05,14.00
2014,07,11,02,06,14.00
2014,07,11,02,07,14.00
2014,07,11,02,08,14.00
2014,07,11,02,09,14.00
2014,07,11,02,10,14.00
2014,07,11,02,11,14.00
2014,07,11,02,12,14.00
2014,07,11,02,13,13.90
2014,07,11,02,14,13.90
2014,07,11,02,15,13.90
2014,07,11,02,16,13.90
2014,07,11,02,17,13.90
2014,07,11,02,18,13.90
2014,07,11,02,19,13.90
2014,07,11,02,20,13.80
2014,07,11,02,21,13.80
2014,07,11,02,22,13.80
2014,07,11,02,23,13.80
2014,07,11,02,24,13.80
2014,07,11,02,25,13.80
2014,07,11,02,26,13.80
2014,07,11,02,27,13.80
2014,07,11,02,28,13.70
2014,07,11,02,29,13.70
2014,07,11,02,30,13.70
2014,07,11,02,31,13.70
2014,07,11,02,32,13.70
2014,07,11,02,33,13.70
2014,07,11,02,34,13.70
2014,07,11,02,35,13.60
2014,07,11,02,36,13.60
2014,07,11,02,37,13.60
2014,07,11,02,38,13.60
2014,07,11,02,39,13.60
2014,07,11,02,40,13.60
2014,07,11,02,41,13.50
2014,07,11,02,42,13.50
2014,07,11,02,43,13.50
2014,07,11,02,44,13.50
2014,07,11,02,45,13.40
2014,07,11,02,46,13.40
2014,07,11,02,47,13.40
2014,07,11,02,48,13.40
2014,07,11,02,49,13.40
2014,07,11,02,50,13.40
2014,07,11,02,51,13.40
2014,07,11,02,52,13.40
2014,07,11,02,53,13.30
2014,07,11,02,54,13.30
2014,07,11,02,55,13.30
2014,07,11,02,56,13.30
2014,07,11,02,57,13.30
2014,07,11,02,58,13.30
2014,07,11,02,59,13.30
2014,07,11,03,00,13.30
2014,07,11,03,01,13.30
2014,07,11,03,02,13.30
2014,07,11,03,03,13.30
2014,07,11,03,04,13.30
2014,07,11,03,05,13.30
2014,07,11,03,06,13.20
2014,07,11,03,07,13.20
2014,07,11,03,08,13.20
2014,07,11,03,09,13.20
2014,07,11,03,10,13.20
2014,07,11,03,11,13.20
2014,07,11,03,12,13.20
2014,07,11,03,13,13.20
2014,07,11,03,14,13.20
2014,07,11,03,15,13.20
2014,07,11,03,16,13.20
2014,07,11,03,17,13.10
2014,07,11,03,18,13.10
2014,07,11,03,19,13.10
2014,07,11,03,20,13.10
2014,07,11,03,21,13.10
2014,07,11,03,22,13.10
2014,07,11,03,23,13.10
2014,07,11,03,24,13.10
2014,07,11,03,25,13.10
2014,07,11,03,26,13.10
2014,07,11,03,27,13.00
2014,07,11,03,28,13.00
2014,07,11,03,29,13.00
2014,07,11,03,30,13.00
2014,07,11,03,31,13.00
2014,07,11,03,32,13.00
2014,07,11,03,33,13.00
2014,07,11,03,34,13.00
2014,07,11,03,35,13.00
2014,07,11,03,36,13.00
2014,07,11,03,37,13.00
2014,07,11,03,38,13.00
2014,07,11,03,39,13.00
2014,07,11,03,40,13.00
2014,07,11,03,41,12.90
2014,07,11,03,42,12.90
2014,07,11,03,43,12.90
2014,07,11,03,44,12.90
2014,07,11,03,45,12.90
2014,07,11,03,46,12.90
2014,07,11,03,47,12.90
2014,07,11,03,48,12.90
2014,07,11,03,49,12.90
2014,07,11,03,50,12.90
2014,07,11,03,51,12.90
2014,07,11,03,52,12.90
2014,07,11,03,53,12.90
2014,07,11,03,54,12.80
2014,07,11,03,55,12.80
2014,07,11,03,56,12.80
2014,07,11,03,57,12.80
2014,07,11,03,58,12.80
2014,07,11,03,59,12.70
2014,07,11,04,00,12.70
2014,07,11,04,01,12.70
2014,07,11,04,02,12.70
2014,07,11,04,03,12.70
2014,07,11,04,04,12.70
2014,07,11,04,05,12.60
2014,07,11,04,06,12.60
2014,07,11,04,07,12.60
2014,07,11,04,08,12.60
2014,07,11,04,09,12.60
2014,07,11,04,10,12.60
2014,07,11,04,11,12.50
2014,07,11,04,12,12.50
2014,07,11,04,13,12.50
2014,07,11,04,14,12.50
2014,07,11,04,15,12.40
2014,07,11,04,16,12.40
2014,07,11,04,17,12.40
2014,07,11,04,18,12.40
2014,07,11,04,19,12.40
2014,07,11,04,20,12.40
2014,07,11,04,21,12.40
2014,07,11,04,22,12.30
2014,07,11,04,23,12.30
2014,07,11,04,24,12.30
2014,07,11,04,25,12.30
2014,07,11,04,26,12.30
2014,07,11,04,27,12.30
2014,07,11,04,28,12.30
2014,07,11,04,29,12.30
2014,07,11,04,30,12.30
2014,07,11,04,31,12.30
2014,07,11,04,32,12.30
2014,07,11,04,33,12.30
2014,07,11,04,34,12.20
2014,07,11,04,35,12.20
2014,07,11,04,36,12.20
2014,07,11,04,37,12.20
2014,07,11,04,38,12.20
2014,07,11,04,39,12.20
2014,07,11,04,40,12.20
2014,07,11,04,41,12.20
2014,07,11,04,42,12.10
2014,07,11,04,43,12.10
2014,07,11,04,44,12.10
2014,07,11,04,45,12.10
2014,07,11,04,46,12.10
2014,07,11,04,47,12.10
2014,07,11,04,48,12.10
2014,07,11,04,49,12.00
2014,07,11,04,50,12.00
2014,07,11,04,51,12.00
2014,07,11,04,52,12.00
2014,07,11,04,53,12.00
2014,07,11,04,54,12.00
2014,07,11,04,55,11.90
2014,07,11,04,56,11.90
2014,07,11,04,57,11.90
2014,07,11,04,58,11.90
2014,07,11,04,59,11.90
2014,07,11,05,00,11.90
2014,07,11,05,01,11.90
2014,07,11,05,02,11.90
2014,07,11,05,03,11.90
2014,07,11,05,04,11.90
2014,07,11,05,05,11.80
2014,07,11,05,06,11.80
2014,07,11,05,07,11.80
2014,07,11,05,08,11.80
2014,07,11,05,09,11.80
2014,07,11,05,10,11.80
2014,07,11,05,11,11.80
2014,07,11,05,12,11.80
2014,07,11,05,13,11.80
2014,07,11,05,14,11.80
2014,07,11,05,15,11.80
2014,07,11,05,16,11.80
2014,07,11,05,17,11.80
2014,07,11,05,18,11.70
2014,07,11,05,19,11.70
2014,07,11,05,20,11.70
2014,07,11,05,21,11.70
2014,07,11,05,22,11.70
2014,07,11,05,23,11.70
2014,07,11,05,24,11.70
2014,07,11,05,25,11.70
2014,07,11,05,26,11.70
2014,07,11,05,27,11.70
2014,07,11,05,28,11.70
2014,07,11,05,29,11.60
2014,07,11,05,30,11.60
2014,07,11,05,31,11.60
2014,07,11,05,32,11.60
2014,07,11,05,33,11.60
2014,07,11,05,34,11.60
2014,07,11,05,35,11.60
2014,07,11,05,36,11.60
2014,07,11,05,37,11.60
2014,07,11,05,38,11.60
2014,07,11,05,39,11.60
2014,07,11,05,40,11.60
2014,07,11,05,41,11.60
2014,07,11,05,42,11.60
2014,07,11,05,43,11.60
2014,07,11,05,44,11.60
2014,07,11,05,45,11.50
2014,07,11,05,46,11.50
2014,07,11,05,47,11.50
2014,07,11,05,48,11.50
2014,07,11,05,49,11.50
2014,07,11,05,50,11.50
2014,07,11,05,51,11.50
2014,07,11,05,52,11.50
2014,07,11,05,53,11.50
2014,07,11,05,54,11.50
2014,07,11,05,55,11.50
2014,07,11,05,56,11.50
2014,07,11,05,57,11.50
2014,07,11,05,58,11.50
2014,07,11,05,59,11.50
2014,07,11,06,00,11.50
2014,07,11,06,01,11.50
2014,07,11,06,02,11.50
2014,07,11,06,03,11.50
2014,07,11,06,04,11.50
2014,07,11,06,05,11.50
2014,07,11,06,06,11.50
2014,07,11,06,07,11.50
2014,07,11,06,08,11.50
2014,07,11,06,09,11.60
2014,07,11,06,10,11.60
2014,07,11,06,11,11.60
2014,07,11,06,12,11.60
2014,07,11,06,13,11.60
2014,07,11,06,14,11.60
2014,07,11,06,15,11.60
2014,07,11,06,16,11.60
2014,07,11,06,17,11.60
2014,07,11,06,18,11.60
2014,07,11,06,19,11.60
2014,07,11,06,20,11.60
2014,07,11,06,21,11.60
2014,07,11,06,22,11.60
2014,07,11,06,23,11.60
2014,07,11,06,24,11.60
2014,07,11,06,25,11.60
2014,07,11,06,26,11.60
2014,07,11,06,27,11.60
2014,07,11,06,28,11.60
2014,07,11,06,29,11.60
2014,07,11,06,30,11.60
2014,07,11,06,31,11.60
2014,07,11,06,32,11.60
2014,07,11,06,33,11.60
2014,07,11,06,34,11.60
2014,07,11,06,35,11.60
2014,07,11,06,36,11.60
2014,07,11,06,37,11.60
2014,07,11,06,38,11.60
2014,07,11,06,39,11.60
2014,07,11,06,40,11.60
2014,07,11,06,41,11.60
2014,07,11,06,42,11.60
2014,07,11,06,43,11.60
2014,07,11,06,44,11.60
2014,07,11,06,45,11.60
2014,07,11,06,46,11.70
2014,07,11,06,47,11.70
2014,07,11,06,48,11.70
2014,07,11,06,49,11.70
2014,07,11,06,50,11.70
2014,07,11,06,51,11.70
2014,07,11,06,52,11.70
2014,07,11,06,53,11.70
2014,07,11,06,54,11.80
2014,07,11,06,55,11.80
2014,07,11,06,56,11.80
2014,07,11,06,57,11.80
2014,07,11,06,58,11.80
2014,07,11,06,59,11.80
2014,07,11,07,00,11.90
2014,07,11,07,01,11.90
2014,07,11,07,02,11.90
2014,07,11,07,03,11.90
2014,07,11,07,04,11.90
2014,07,11,07,05,11.90
2014,07,11,07,06,12.00
2014,07,11,07,07,12.00
2014,07,11,07,08,12.10
2014,07,11,07,09,12.10
2014,07,11,07,10,12.10
2014,07,11,07,11,12.20
2014,07,11,07,12,12.20
2014,07,11,07,13,12.30
2014,07,11,07,14,12.30
2014,07,11,07,15,12.30
2014,07,11,07,16,12.40
2014,07,11,07,17,12.40
2014,07,11,07,18,12.40
2014,07,11,07,19,12.50
2014,07,11,07,20,12.50
2014,07,11,07,21,12.50
2014,07,11,07,22,12.60
2014,07,11,07,23,12.70
2014,07,11,07,24,12.70
2014,07,11,07,25,12.80
2014,07,11,07,26,12.90
2014,07,11,07,27,12.90
2014,07,11,07,28,13.00
2014,07,11,07,29,13.10
2014,07,11,07,30,13.20
2014,07,11,07,31,13.20
2014,07,11,07,32,13.30
2014,07,11,07,33,13.30
2014,07,11,07,34,13.40
2014,07,11,07,35,13.50
2014,07,11,07,36,13.50
2014,07,11,07,37,13.60
2014,07,11,07,38,13.70
2014,07,11,07,39,13.70
2014,07,11,07,40,13.70
2014,07,11,07,41,13.80
2014,07,11,07,42,13.90
2014,07,11,07,43,13.90
2014,07,11,07,44,14.00
2014,07,11,07,45,14.10
2014,07,11,07,46,14.10
2014,07,11,07,47,14.20
2014,07,11,07,48,14.30
2014,07,11,07,49,14.30
2014,07,11,07,50,14.30
2014,07,11,07,51,14.40
2014,07,11,07,52,14.50
2014,07,11,07,53,14.60
2014,07,11,07,54,14.70
2014,07,11,07,55,14.80
2014,07,11,07,56,14.80
2014,07,11,07,57,15.00
2014,07,11,07,58,15.00
2014,07,11,07,59,15.00
2014,07,11,08,00,15.00
2014,07,11,08,01,15.20
2014,07,11,08,02,15.30
2014,07,11,08,03,15.50
2014,07,11,08,04,15.60
2014,07,11,08,05,15.70
2014,07,11,08,06,15.80
2014,07,11,08,07,16.00
2014,07,11,08,08,16.10
2014,07,11,08,09,16.20
2014,07,11,08,10,16.40
2014,07,11,08,11,16.50
2014,07,11,08,12,16.60
2014,07,11,08,13,16.80
2014,07,11,08,14,16.90
2014,07,11,08,15,17.10
2014,07,11,08,16,17.20
2014,07,11,08,17,17.30
2014,07,11,08,18,17.40
2014,07,11,08,19,17.50
2014,07,11,08,20,17.60
2014,07,11,08,21,17.70
2014,07,11,08,22,17.80
2014,07,11,08,23,17.90
2014,07,11,08,24,18.00
2014,07,11,08,25,18.10
2014,07,11,08,26,18.20
2014,07,11,08,27,18.30
2014,07,11,08,28,18.40
2014,07,11,08,29,18.40
2014,07,11,08,30,18.50
2014,07,11,08,31,18.60
2014,07,11,08,32,18.70
2014,07,11,08,33,18.70
2014,07,11,08,34,18.80
2014,07,11,08,35,18.90
2014,07,11,08,36,18.90
2014,07,11,08,37,19.00
2014,07,11,08,38,19.00
2014,07,11,08,39,19.10
2014,07,11,08,40,19.10
2014,07,11,08,41,19.10
2014,07,11,08,42,19.10
2014,07,11,08,43,19.10
2014,07,11,08,44,19.20
2014,07,11,08,45,19.20
2014,07,11,08,46,19.30
2014,07,11,08,47,19.30
2014,07,11,08,48,19.30
2014,07,11,08,49,19.30
2014,07,11,08,50,19.40
2014,07,11,08,51,19.40
2014,07,11,08,52,19.40
2014,07,11,08,53,19.50
2014,07,11,08,54,19.60
2014,07,11,08,55,19.60
2014,07,11,08,56,19.70
2014,07,11,08,57,19.80
2014,07,11,08,58,19.80
2014,07,11,08,59,19.90
2014,07,11,09,00,20.00
2014,07,11,09,01,20.10
2014,07,11,09,02,20.10
2014,07,11,09,03,20.20
2014,07,11,09,04,20.30
2014,07,11,09,05,20.30
2014,07,11,09,06,20.40
2014,07,11,09,07,20.50
2014,07,11,09,08,20.60
2014,07,11,09,09,20.60
2014,07,11,09,10,20.70
2014,07,11,09,11,20.70
2014,07,11,09,12,20.80
2014,07,11,09,13,20.90
2014,07,11,09,14,21.00
2014,07,11,09,15,21.00
2014,07,11,09,16,21.10
2014,07,11,09,17,21.20
2014,07,11,09,18,21.20
2014,07,11,09,19,21.20
2014,07,11,09,20,21.10
2014,07,11,09,21,21.10
2014,07,11,09,22,21.10
2014,07,11,09,23,21.20
2014,07,11,09,24,21.30
2014,07,11,09,25,21.30
2014,07,11,09,26,21.40
2014,07,11,09,27,21.50
2014,07,11,09,28,21.60
2014,07,11,09,29,21.60
2014,07,11,09,30,21.70
2014,07,11,09,31,21.70
2014,07,11,09,32,21.80
2014,07,11,09,33,21.80
2014,07,11,09,34,21.90
2014,07,11,09,35,21.90
2014,07,11,09,36,21.90
2014,07,11,09,37,21.90
2014,07,11,09,38,21.90
2014,07,11,09,39,21.90
2014,07,11,09,40,21.90
2014,07,11,09,41,21.90
2014,07,11,09,42,21.90
2014,07,11,09,43,22.00
2014,07,11,09,44,22.00
2014,07,11,09,45,22.10
2014,07,11,09,46,22.20
2014,07,11,09,47,22.30
2014,07,11,09,48,22.40
2014,07,11,09,49,22.50
2014,07,11,09,50,22.50
2014,07,11,09,51,22.60
2014,07,11,09,52,22.70
2014,07,11,09,53,22.70
2014,07,11,09,54,22.80
2014,07,11,09,55,22.90
2014,07,11,09,56,23.00
2014,07,11,09,57,23.20
2014,07,11,09,58,23.30
2014,07,11,09,59,23.30
2014,07,11,10,00,23.40
2014,07,11,10,01,23.50
2014,07,11,10,02,23.60
2014,07,11,10,03,23.70
2014,07,11,10,04,23.80
2014,07,11,10,05,23.80
2014,07,11,10,06,24.00
2014,07,11,10,07,24.10
2014,07,11,10,08,24.10
2014,07,11,10,09,24.20
2014,07,11,10,10,24.20
2014,07,11,10,11,24.30
2014,07,11,10,12,24.30
2014,07,11,10,13,24.30
2014,07,11,10,14,24.30
2014,07,11,10,15,24.40
2014,07,11,10,16,24.40
2014,07,11,10,17,24.40
2014,07,11,10,18,24.40
2014,07,11,10,19,24.30
2014,07,11,10,20,24.30
2014,07,11,10,21,24.30
2014,07,11,10,22,24.30
2014,07,11,10,23,24.30
2014,07,11,10,24,24.30
2014,07,11,10,25,24.30
2014,07,11,10,26,24.30
2014,07,11,10,27,24.20
2014,07,11,10,28,24.10
2014,07,11,10,29,24.10
2014,07,11,10,30,24.10
2014,07,11,10,31,24.10
2014,07,11,10,32,24.10
2014,07,11,10,33,24.20
2014,07,11,10,34,24.30
2014,07,11,10,35,24.40
2014,07,11,10,36,24.40
2014,07,11,10,37,24.60
2014,07,11,10,38,24.70
2014,07,11,10,39,24.80
2014,07,11,10,40,24.80
2014,07,11,10,41,24.90
2014,07,11,10,42,25.00
2014,07,11,10,43,25.10
2014,07,11,10,44,25.20
2014,07,11,10,45,25.30
2014,07,11,10,46,25.40
2014,07,11,10,47,25.50
2014,07,11,10,48,25.70
2014,07,11,10,49,25.80
2014,07,11,10,50,25.80
2014,07,11,10,51,25.90
2014,07,11,10,52,25.90
2014,07,11,10,53,26.00
2014,07,11,10,54,26.00
2014,07,11,10,55,26.10
2014,07,11,10,56,26.10
2014,07,11,10,57,26.20
2014,07,11,10,58,26.20
2014,07,11,10,59,26.30
2014,07,11,11,00,26.30
2014,07,11,11,01,26.30
2014,07,11,11,02,26.30
2014,07,11,11,03,26.30
2014,07,11,11,04,26.30
2014,07,11,11,05,26.40
2014,07,11,11,06,26.40
2014,07,11,11,07,26.40
2014,07,11,11,08,26.40
2014,07,11,11,09,26.40
2014,07,11,11,10,26.50
2014,07,11,11,11,26.60
2014,07,11,11,12,26.70
2014,07,11,11,13,26.80
2014,07,11,11,14,26.80
2014,07,11,11,15,26.80
2014,07,11,11,16,26.90
2014,07,11,11,17,27.00
2014,07,11,11,18,27.00
2014,07,11,11,19,27.10
2014,07,11,11,20,27.10
2014,07,11,11,21,27.20
2014,07,11,11,22,27.20
2014,07,11,11,23,27.30
2014,07,11,11,24,27.40
2014,07,11,11,25,27.40
2014,07,11,11,26,27.40
2014,07,11,11,27,27.50
2014,07,11,11,28,27.60
2014,07,11,11,29,27.60
2014,07,11,11,30,27.70
2014,07,11,11,31,27.70
2014,07,11,11,32,27.80
2014,07,11,11,33,27.80
2014,07,11,11,34,27.80
2014,07,11,11,35,27.70
2014,07,11,11,36,27.70
2014,07,11,11,37,27.70
2014,07,11,11,38,27.70
2014,07,11,11,39,27.70
2014,07,11,11,40,27.80
2014,07,11,11,41,27.80
2014,07,11,11,42,27.80
2014,07,11,11,43,27.80
2014,07,11,11,44,27.80
2014,07,11,11,45,27.90
2014,07,11,11,46,27.90
2014,07,11,11,47,27.90
2014,07,11,11,48,27.80
2014,07,11,11,49,27.80
2014,07,11,11,50,27.80
2014,07,11,11,51,27.80
2014,07,11,11,52,27.80
2014,07,11,11,53,27.90
2014,07,11,11,54,27.90
2014,07,11,11,55,28.00
2014,07,11,11,56,28.10
2014,07,11,11,57,28.20
2014,07,11,11,58,28.20
2014,07,11,11,59,28.20
2014,07,11,12,00,28.20
2014,07,11,12,01,28.20
2014,07,11,12,02,28.20
2014,07,11,12,03,28.30
2014,07,11,12,04,28.40
2014,07,11,12,05,28.50
2014,07,11,12,06,28.60
2014,07,11,12,07,28.70
2014,07,11,12,08,28.80
2014,07,11,12,09,28.90
2014,07,11,12,10,29.00
2014,07,11,12,11,29.10
2014,07,11,12,12,29.20
2014,07,11,12,13,29.20
2014,07,11,12,14,29.20
2014,07,11,12,15,29.30
2014,07,11,12,16,29.30
2014,07,11,12,17,29.20
2014,07,11,12,18,29.20
2014,07,11,12,19,29.30
2014,07,11,12,20,29.20
2014,07,11,12,21,29.20
2014,07,11,12,22,29.20
2014,07,11,12,23,29.20
2014,07,11,12,24,29.20
2014,07,11,12,25,29.10
2014,07,11,12,26,29.00
2014,07,11,12,27,28.90
2014,07,11,12,28,28.80
2014,07,11,12,29,28.70
2014,07,11,12,30,28.70
2014,07,11,12,31,28.60
2014,07,11,12,32,28.60
2014,07,11,12,33,28.60
2014,07,11,12,34,28.60
2014,07,11,12,35,28.70
2014,07,11,12,36,28.70
2014,07,11,12,37,28.70
2014,07,11,12,38,28.70
2014,07,11,12,39,28.70
2014,07,11,12,40,28.80
2014,07,11,12,41,28.80
2014,07,11,12,42,28.80
2014,07,11,12,43,28.80
2014,07,11,12,44,28.90
2014,07,11,12,45,28.90
2014,07,11,12,46,28.90
2014,07,11,12,47,29.00
2014,07,11,12,48,28.90
2014,07,11,12,49,28.90
2014,07,11,12,50,29.00
2014,07,11,12,51,29.00
2014,07,11,12,52,29.10
2014,07,11,12,53,29.20
2014,07,11,12,54,29.20
2014,07,11,12,55,29.30
2014,07,11,12,56,29.30
2014,07,11,12,57,29.30
2014,07,11,12,58,29.30
2014,07,11,12,59,29.30
2014,07,11,13,00,29.40
2014,07,11,13,01,29.60
2014,07,11,13,02,29.70
2014,07,11,13,03,29.70
2014,07,11,13,04,29.80
2014,07,11,13,05,29.90
2014,07,11,13,06,29.90
2014,07,11,13,07,29.90
2014,07,11,13,08,29.90
2014,07,11,13,09,29.90
2014,07,11,13,10,30.00
2014,07,11,13,11,30.00
2014,07,11,13,12,30.00
2014,07,11,13,13,30.10
2014,07,11,13,14,30.10
2014,07,11,13,15,30.20
2014,07,11,13,16,30.20
2014,07,11,13,17,30.10
2014,07,11,13,18,30.00
2014,07,11,13,19,29.90
2014,07,11,13,20,29.80
2014,07,11,13,21,29.80
2014,07,11,13,22,29.80
2014,07,11,13,23,29.80
2014,07,11,13,24,29.80
2014,07,11,13,25,29.80
2014,07,11,13,26,29.80
2014,07,11,13,27,29.80
2014,07,11,13,28,29.80
2014,07,11,13,29,29.90
2014,07,11,13,30,29.90
2014,07,11,13,31,29.90
2014,07,11,13,32,30.00
2014,07,11,13,33,30.00
2014,07,11,13,34,30.00
2014,07,11,13,35,30.00
2014,07,11,13,36,30.10
2014,07,11,13,37,30.10
2014,07,11,13,38,30.10
2014,07,11,13,39,30.10
2014,07,11,13,40,30.00
2014,07,11,13,41,30.00
2014,07,11,13,42,29.90
2014,07,11,13,43,29.90
2014,07,11,13,44,30.00
2014,07,11,13,45,30.00
2014,07,11,13,46,30.00
2014,07,11,13,47,30.10
2014,07,11,13,48,30.20
2014,07,11,13,49,30.30
2014,07,11,13,50,30.40
2014,07,11,13,51,30.50
2014,07,11,13,52,30.60
2014,07,11,13,53,30.60
2014,07,11,13,54,30.60
2014,07,11,13,55,30.60
2014,07,11,13,56,30.60
2014,07,11,13,57,30.60
2014,07,11,13,58,30.60
2014,07,11,13,59,30.60
2014,07,11,14,00,30.50
2014,07,11,14,01,30.50
2014,07,11,14,02,30.50
2014,07,11,14,03,30.50
2014,07,11,14,04,30.40
2014,07,11,14,05,30.40
2014,07,11,14,06,30.40
2014,07,11,14,07,30.40
2014,07,11,14,08,30.50
2014,07,11,14,09,30.50
2014,07,11,14,10,30.50
2014,07,11,14,11,30.50
2014,07,11,14,12,30.60
2014,07,11,14,13,30.60
2014,07,11,14,14,30.70
2014,07,11,14,15,30.70
2014,07,11,14,16,30.80
2014,07,11,14,17,30.80
2014,07,11,14,18,30.90
2014,07,11,14,19,30.90
2014,07,11,14,20,30.80
2014,07,11,14,21,30.90
2014,07,11,14,22,30.90
2014,07,11,14,23,30.90
2014,07,11,14,24,30.90
2014,07,11,14,25,30.90
2014,07,11,14,26,30.80
2014,07,11,14,27,30.70
2014,07,11,14,28,30.70
2014,07,11,14,29,30.70
2014,07,11,14,30,30.70
2014,07,11,14,31,30.70
2014,07,11,14,32,30.80
2014,07,11,14,33,30.80
2014,07,11,14,34,30.80
2014,07,11,14,35,30.80
2014,07,11,14,36,30.90
2014,07,11,14,37,30.90
2014,07,11,14,38,30.90
2014,07,11,14,39,31.00
2014,07,11,14,40,31.00
2014,07,11,14,41,31.00
2014,07,11,14,42,30.90
2014,07,11,14,43,30.90
2014,07,11,14,44,30.90
2014,07,11,14,45,31.00
2014,07,11,14,46,31.00
2014,07,11,14,47,31.00
2014,07,11,14,48,31.10
2014,07,11,14,49,31.10
2014,07,11,14,50,31.10
2014,07,11,14,51,31.10
2014,07,11,14,52,31.10
2014,07,11,14,53,31.20
2014,07,11,14,54,31.30
2014,07,11,14,55,31.30
2014,07,11,14,56,31.40
2014,07,11,14,57,31.50
2014,07,11,14,58,31.50
2014,07,11,14,59,31.50
2014,07,11,15,00,31.40
2014,07,11,15,01,31.40
2014,07,11,15,02,31.30
2014,07,11,15,03,31.30
2014,07,11,15,04,31.30
2014,07,11,15,05,31.30
2014,07,11,15,06,31.30
2014,07,11,15,07,31.30
2014,07,11,15,08,31.30
2014,07,11,15,09,31.20
2014,07,11,15,10,31.20
2014,07,11,15,11,31.20
2014,07,11,15,12,31.10
2014,07,11,15,13,31.10
2014,07,11,15,14,31.20
2014,07,11,15,15,31.20
2014,07,11,15,16,31.20
2014,07,11,15,17,31.20
2014,07,11,15,18,31.20
2014,07,11,15,19,31.20
2014,07,11,15,20,31.30
2014,07,11,15,21,31.30
2014,07,11,15,22,31.30
2014,07,11,15,23,31.30
2014,07,11,15,24,31.30
2014,07,11,15,25,31.30
2014,07,11,15,26,31.30
2014,07,11,15,27,31.30
2014,07,11,15,28,31.30
2014,07,11,15,29,31.30
2014,07,11,15,30,31.30
2014,07,11,15,31,31.30
2014,07,11,15,32,31.40
2014,07,11,15,33,31.30
2014,07,11,15,34,31.40
2014,07,11,15,35,31.40
2014,07,11,15,36,31.40
2014,07,11,15,37,31.40
2014,07,11,15,38,31.40
2014,07,11,15,39,31.40
2014,07,11,15,40,31.50
2014,07,11,15,41,31.50
2014,07,11,15,42,31.50
2014,07,11,15,43,31.50
2014,07,11,15,44,31.50
2014,07,11,15,45,31.50
2014,07,11,15,46,31.40
2014,07,11,15,47,31.40
2014,07,11,15,48,31.40
2014,07,11,15,49,31.40
2014,07,11,15,50,31.40
2014,07,11,15,51,31.40
2014,07,11,15,52,31.50
2014,07,11,15,53,31.50
2014,07,11,15,54,31.60
2014,07,11,15,55,31.60
2014,07,11,15,56,31.60
2014,07,11,15,57,31.70
2014,07,11,15,58,31.70
2014,07,11,15,59,31.70
2014,07,11,16,00,31.60
2014,07,11,16,01,31.60
2014,07,11,16,02,31.60
2014,07,11,16,03,31.60
2014,07,11,16,04,31.60
2014,07,11,16,05,31.70
2014,07,11,16,06,31.70
2014,07,11,16,07,31.70
2014,07,11,16,08,31.70
2014,07,11,16,09,31.80
2014,07,11,16,10,31.80
2014,07,11,16,11,31.70
2014,07,11,16,12,31.70
2014,07,11,16,13,31.70
2014,07,11,16,14,31.70
2014,07,11,16,15,31.70
2014,07,11,16,16,31.80
2014,07,11,16,17,31.80
2014,07,11,16,18,31.80
2014,07,11,16,19,31.80
2014,07,11,16,20,31.80
2014,07,11,16,21,31.80
2014,07,11,16,22,31.80
2014,07,11,16,23,31.80
2014,07,11,16,24,31.80
2014,07,11,16,25,31.80
2014,07,11,16,26,31.90
2014,07,11,16,27,31.90
2014,07,11,16,28,31.90
2014,07,11,16,29,31.90
2014,07,11,16,30,31.90
2014,07,11,16,31,31.90
2014,07,11,16,32,31.90
2014,07,11,16,33,31.90
2014,07,11,16,34,31.90
2014,07,11,16,35,31.80
2014,07,11,16,36,31.80
2014,07,11,16,37,31.80
2014,07,11,16,38,31.80
2014,07,11,16,39,31.80
2014,07,11,16,40,31.80
2014,07,11,16,41,31.80
2014,07,11,16,42,31.70
2014,07,11,16,43,31.70
2014,07,11,16,44,31.70
2014,07,11,16,45,31.70
2014,07,11,16,46,31.70
2014,07,11,16,47,31.70
2014,07,11,16,48,31.70
2014,07,11,16,49,31.70
2014,07,11,16,50,31.70
2014,07,11,16,51,31.70
2014,07,11,16,52,31.70
2014,07,11,16,53,31.80
2014,07,11,16,54,31.80
2014,07,11,16,55,31.80
2014,07,11,16,56,31.80
2014,07,11,16,57,31.80
2014,07,11,16,58,31.80
2014,07,11,16,59,31.80
2014,07,11,17,00,31.80
2014,07,11,17,01,31.80
2014,07,11,17,02,31.80
2014,07,11,17,03,31.80
2014,07,11,17,04,31.80
2014,07,11,17,05,31.80
2014,07,11,17,06,31.90
2014,07,11,17,07,31.90
2014,07,11,17,08,32.00
2014,07,11,17,09,32.00
2014,07,11,17,10,32.10
2014,07,11,17,11,32.00
2014,07,11,17,12,32.00
2014,07,11,17,13,32.00
2014,07,11,17,14,31.90
2014,07,11,17,15,31.90
2014,07,11,17,16,31.90
2014,07,11,17,17,31.90
2014,07,11,17,18,31.90
2014,07,11,17,19,31.90